{"data":{"norad_id":66915,"intl_designator":"2025-285A","name":"HULIANWANG DIGUI-105","alt_names":[],"object_type":"PAYLOAD","status":"ACTIVE","operator":null,"country":"PRC","launch_date":"2025-12-06","launch_site_code":"WSC","launch_vehicle":null,"mission":null,"orbit_class":"UNKNOWN","rcs_meters":null,"size_class":null,"mass_kg":null,"dimensions":null,"purposes":[],"wikipedia_slug":null,"has_3d_model":false,"image_url":null,"decayed_at":null,"tle_current":{"epoch":"2026-05-24T22:41:34.344096Z","epoch_age_seconds":75892,"freshness":"FRESH","line1":"1 66915U 25285A   26144.94553639 -.00000102  00000+0  46722-4 0  9998","line2":"2 66915  50.0046 229.5752 0001097 209.2821 150.7990 13.29322160 22966","mean_motion":13.2932216,"eccentricity":0.0001097,"inclination_deg":50.0046,"raan_deg":229.5752,"arg_perigee_deg":209.2821,"mean_anomaly_deg":150.799,"bstar":4.6722e-5,"rev_number":2296,"period_min":108.3258854272,"perigee_km":1148.4953059988,"apogee_km":1150.1468302989,"semimajor_km":7527.4580681488,"source":"CELESTRAK","updated_at":"2026-05-25T13:38:06.593264Z"}}}